Regional Weather Roundup
Issued by NWS

Home | Current Version | Previous Version | Graphics & Text | Print | Product List | Glossary On
Versions: 1 2 3 4 5 6 7 8 9 10 11 12 13 14 15 16 17 18 19 20 21 22 23 24 25 26 27 28 29 30 31 32 33 34 35 36 37 38 39 40 41 42 43 44 45 46 47 48 49 50
000
ASUS44 KMEG 202000
RWRTN
TENNESSEE HOURLY STATE WEATHER ROUNDUP
NATIONAL WEATHER SERVICE MEMPHIS TN
300 PM CDT WED SEP 20 2017

TNZ002-004-019-021-049-052-054-088>092-202100-
WEST TENNESSEE

CITY           SKY/WX    TMP DP  RH WIND       PRES   REMARKS
MEMPHIS INTL   PTSUNNY   90  72  55 SW8       29.96F HX  97
NWS MEMPHIS      N/A     92 N/A N/A MISG        N/A
JACKSON        MOSUNNY   91  72  53 S9        29.97F HX  98
DYERSBURG      MOSUNNY   88  72  58 S6        29.96F HX  94
$$

TNZ008-025-027-028-033-062-065-066-202100-
NORTH MIDDLE TENNESSEE

CITY           SKY/WX    TMP DP  RH WIND       PRES   REMARKS
NASHVILLE      MOSUNNY   88  70  55 E6        30.00F HX  93
CLARKSVILLE    MOSUNNY   89  70  53 SW9       29.98F HX  94
SMYRNA         MOSUNNY   87  72  59 CALM      30.03S HX  93
CROSSVILLE     CLOUDY    83  66  56 VRB3      30.08F
$$

TNZ061-075-076-078-094-096-097-202100-
SOUTH MIDDLE TENNESSEE

CITY           SKY/WX    TMP DP  RH WIND       PRES   REMARKS
TULLAHOMA      SUNNY     88  64  45 CALM      30.04F
MCMINNVILLE    SUNNY     88  72  58 SW6       30.04S HX  94
$$

TNZ017-018-042-046-047-202100-
NORTHEAST TENNESSEE

CITY           SKY/WX    TMP DP  RH WIND       PRES   REMARKS
TRI CITIES     MOSUNNY   86  62  44 W9        30.05F
$$

TNZ012-013-036-069-073-074-202100-
CENTRAL EAST TENNESSEE

CITY           SKY/WX    TMP DP  RH WIND       PRES   REMARKS
KNOXVILLE      MOSUNNY   85  65  51 E5        30.02F
OAK RIDGE      SUNNY     84  66  54 S5        30.04F
GATLINBURG     MOSUNNY   88  63  42 VRB3      30.02F
$$

TNZ083-085-099-202100-
SOUTHEAST TENNESSEE

CITY           SKY/WX    TMP DP  RH WIND       PRES   REMARKS
CHATTANOOGA    MOSUNNY   87  66  49 W5        30.02F
$$

SKY/WX REPORTED AS FAIR MEANS FEW OR NO CLOUDS BELOW
12 THOUSAND FEET.




USA.gov is the U.S. government's official web portal to all federal, state and local government web resources and services.